owner,sensor,date,latitude,longitude,vertical_datum,sea_water_temperature,qcFlag
Chevron,ioos:station:wmo:42888:1,2022-08-01T00:02:00Z,0.0000,0.0000,1.2,30.8,11111222
Chevron,ioos:station:wmo:42888:1,2022-08-01T00:12:00Z,0.0000,0.0000,1.2,30.8,11111222
Chevron,ioos:station:wmo:42888:1,2022-08-01T00:22:00Z,0.0000,0.0000,1.1,30.8,11111222
Chevron,ioos:station:wmo:42888:1,2022-08-01T00:32:00Z,0.0000,0.0000,1.1,30.8,11111222
Chevron,ioos:station:wmo:42888:1,2022-08-01T00:42:00Z,0.0000,0.0000,1.1,30.8,11111222
Chevron,ioos:station:wmo:42888:1,2022-08-01T00:52:00Z,0.0000,0.0000,1.3,30.9,11111222
Chevron,ioos:station:wmo:42888:1,2022-08-01T01:02:00Z,0.0000,0.0000,1.1,30.8,11111222
Chevron,ioos:station:wmo:42888:1,2022-08-01T01:12:00Z,0.0000,0.0000,1.2,30.8,11111222
Chevron,ioos:station:wmo:42888:1,2022-08-01T01:22:00Z,0.0000,0.0000,1.1,30.8,11111222
Chevron,ioos:station:wmo:42888:1,2022-08-01T01:32:00Z,0.0000,0.0000,1.0,30.7,11111222
Chevron,ioos:station:wmo:42888:1,2022-08-01T01:42:00Z,0.0000,0.0000,1.2,30.8,11111222
Chevron,ioos:station:wmo:42888:1,2022-08-01T01:52:00Z,0.0000,0.0000,1.1,30.9,11111222
Chevron,ioos:station:wmo:42888:1,2022-08-01T02:02:00Z,0.0000,0.0000,1.1,30.8,11111222
Chevron,ioos:station:wmo:42888:1,2022-08-01T02:12:00Z,0.0000,0.0000,1.0,30.8,11111222
Chevron,ioos:station:wmo:42888:1,2022-08-01T02:22:00Z,0.0000,0.0000,1.1,30.9,11111222
Chevron,ioos:station:wmo:42888:1,2022-08-01T02:32:00Z,0.0000,0.0000,1.1,30.9,11111222
Chevron,ioos:station:wmo:42888:1,2022-08-01T02:42:00Z,0.0000,0.0000,1.1,30.9,11111222
Chevron,ioos:station:wmo:42888:1,2022-08-01T02:52:00Z,0.0000,0.0000,1.1,30.9,11111222
Chevron,ioos:station:wmo:42888:1,2022-08-01T03:02:00Z,0.0000,0.0000,1.1,30.9,11111222
Chevron,ioos:station:wmo:42888:1,2022-08-01T03:12:00Z,0.0000,0.0000,1.1,30.8,11111222
Chevron,ioos:station:wmo:42888:1,2022-08-01T03:22:00Z,0.0000,0.0000,1.1,30.6,11111222
Chevron,ioos:station:wmo:42888:1,2022-08-01T03:32:00Z,0.0000,0.0000,1.2,30.7,11111222
Chevron,ioos:station:wmo:42888:1,2022-08-01T03:42:00Z,0.0000,0.0000,1.2,30.7,11111222
Chevron,ioos:station:wmo:42888:1,2022-08-01T03:52:00Z,0.0000,0.0000,1.2,30.6,11111222
Chevron,ioos:station:wmo:42888:1,2022-08-01T04:02:00Z,0.0000,0.0000,1.2,30.6,11111222
Chevron,ioos:station:wmo:42888:1,2022-08-01T04:12:00Z,0.0000,0.0000,1.1,30.5,11111222
Chevron,ioos:station:wmo:42888:1,2022-08-01T04:22:00Z,0.0000,0.0000,1.4,30.6,11111222
Chevron,ioos:station:wmo:42888:1,2022-08-01T04:32:00Z,0.0000,0.0000,1.2,30.6,11111222
Chevron,ioos:station:wmo:42888:1,2022-08-01T04:42:00Z,0.0000,0.0000,1.2,30.6,11111222
Chevron,ioos:station:wmo:42888:1,2022-08-01T04:52:00Z,0.0000,0.0000,1.1,30.5,11111222
Chevron,ioos:station:wmo:42888:1,2022-08-01T05:02:00Z,0.0000,0.0000,1.2,30.5,11111222
Chevron,ioos:station:wmo:42888:1,2022-08-01T05:33:00Z,0.0000,0.0000,1.2,30.4,11111222
Chevron,ioos:station:wmo:42888:1,2022-08-01T05:43:00Z,0.0000,0.0000,1.2,30.4,11111222
Chevron,ioos:station:wmo:42888:1,2022-08-01T05:53:00Z,0.0000,0.0000,1.1,30.3,11111222
Chevron,ioos:station:wmo:42888:1,2022-08-01T06:03:00Z,0.0000,0.0000,1.2,30.1,11111222
Chevron,ioos:station:wmo:42888:1,2022-08-01T06:13:00Z,0.0000,0.0000,1.1,30.1,11111222
Chevron,ioos:station:wmo:42888:1,2022-08-01T06:23:00Z,0.0000,0.0000,1.1,30.1,11111222
Chevron,ioos:station:wmo:42888:1,2022-08-01T06:33:00Z,0.0000,0.0000,1.3,29.9,11111222
Chevron,ioos:station:wmo:42888:1,2022-08-01T06:43:00Z,0.0000,0.0000,1.3,29.8,11111222
Chevron,ioos:station:wmo:42888:1,2022-08-01T06:53:00Z,0.0000,0.0000,1.2,30.1,11111222
Chevron,ioos:station:wmo:42888:1,2022-08-01T07:03:00Z,0.0000,0.0000,1.2,30.1,11111222
Chevron,ioos:station:wmo:42888:1,2022-08-01T07:13:00Z,0.0000,0.0000,1.4,29.9,11111222
Chevron,ioos:station:wmo:42888:1,2022-08-01T07:23:00Z,0.0000,0.0000,1.4,29.8,11111222
Chevron,ioos:station:wmo:42888:1,2022-08-01T07:33:00Z,0.0000,0.0000,1.4,29.8,11111222
Chevron,ioos:station:wmo:42888:1,2022-08-01T07:43:00Z,0.0000,0.0000,1.2,29.8,11111222
Chevron,ioos:station:wmo:42888:1,2022-08-01T07:53:00Z,0.0000,0.0000,1.3,29.8,11111222
Chevron,ioos:station:wmo:42888:1,2022-08-01T08:03:00Z,0.0000,0.0000,1.5,29.7,11111222
Chevron,ioos:station:wmo:42888:1,2022-08-01T08:13:00Z,0.0000,0.0000,1.2,29.8,11111222
Chevron,ioos:station:wmo:42888:1,2022-08-01T08:23:00Z,0.0000,0.0000,1.2,29.9,11111222
Chevron,ioos:station:wmo:42888:1,2022-08-01T08:33:00Z,0.0000,0.0000,1.3,29.9,11111222
Chevron,ioos:station:wmo:42888:1,2022-08-01T08:43:00Z,0.0000,0.0000,1.4,29.8,11111222
Chevron,ioos:station:wmo:42888:1,2022-08-01T08:53:00Z,0.0000,0.0000,1.2,29.9,11111222
Chevron,ioos:station:wmo:42888:1,2022-08-01T09:03:00Z,0.0000,0.0000,1.1,30.3,11111222
Chevron,ioos:station:wmo:42888:1,2022-08-01T09:13:00Z,0.0000,0.0000,1.2,30.2,11111222
Chevron,ioos:station:wmo:42888:1,2022-08-01T09:23:00Z,0.0000,0.0000,1.3,29.9,11111222
Chevron,ioos:station:wmo:42888:1,2022-08-01T09:33:00Z,0.0000,0.0000,1.2,29.9,11111222
Chevron,ioos:station:wmo:42888:1,2022-08-01T09:43:00Z,0.0000,0.0000,1.3,29.9,11111222
Chevron,ioos:station:wmo:42888:1,2022-08-01T09:53:00Z,0.0000,0.0000,1.1,30.1,11111222
Chevron,ioos:station:wmo:42888:1,2022-08-01T10:03:00Z,0.0000,0.0000,1.2,30.2,11111222
Chevron,ioos:station:wmo:42888:1,2022-08-01T10:13:00Z,0.0000,0.0000,1.2,30.1,11111222
Chevron,ioos:station:wmo:42888:1,2022-08-01T10:23:00Z,0.0000,0.0000,1.1,29.9,11111222
Chevron,ioos:station:wmo:42888:1,2022-08-01T10:33:00Z,0.0000,0.0000,1.1,30.2,11111222
Chevron,ioos:station:wmo:42888:1,2022-08-01T10:43:00Z,0.0000,0.0000,1.1,30.3,11111222
Chevron,ioos:station:wmo:42888:1,2022-08-01T10:53:00Z,0.0000,0.0000,0.9,30.1,11111222
Chevron,ioos:station:wmo:42888:1,2022-08-01T11:03:00Z,0.0000,0.0000,0.9,30.0,11111222
Chevron,ioos:station:wmo:42888:1,2022-08-01T11:13:00Z,0.0000,0.0000,1.2,29.9,11111222
Chevron,ioos:station:wmo:42888:1,2022-08-01T11:23:00Z,0.0000,0.0000,1.2,29.9,11111222
Chevron,ioos:station:wmo:42888:1,2022-08-01T11:33:00Z,0.0000,0.0000,1.1,29.9,11111222
Chevron,ioos:station:wmo:42888:1,2022-08-01T11:43:00Z,0.0000,0.0000,1.2,30.0,11111222
Chevron,ioos:station:wmo:42888:1,2022-08-01T11:53:00Z,0.0000,0.0000,1.1,30.2,11111222
Chevron,ioos:station:wmo:42888:1,2022-08-01T12:03:00Z,0.0000,0.0000,1.1,30.2,11111222
Chevron,ioos:station:wmo:42888:1,2022-08-01T12:13:00Z,0.0000,0.0000,1.0,30.0,11111222
Chevron,ioos:station:wmo:42888:1,2022-08-01T12:23:00Z,0.0000,0.0000,1.2,30.1,11111222
Chevron,ioos:station:wmo:42888:1,2022-08-01T12:33:00Z,0.0000,0.0000,1.0,29.9,11111222
Chevron,ioos:station:wmo:42888:1,2022-08-01T12:43:00Z,0.0000,0.0000,1.3,29.8,11111222
Chevron,ioos:station:wmo:42888:1,2022-08-01T12:53:00Z,0.0000,0.0000,1.3,29.8,11111222
Chevron,ioos:station:wmo:42888:1,2022-08-01T13:03:00Z,0.0000,0.0000,1.2,29.9,11111222
Chevron,ioos:station:wmo:42888:1,2022-08-01T13:13:00Z,0.0000,0.0000,1.2,30.0,11111222
Chevron,ioos:station:wmo:42888:1,2022-08-01T13:23:00Z,0.0000,0.0000,1.4,29.7,11111222
Chevron,ioos:station:wmo:42888:1,2022-08-01T13:33:00Z,0.0000,0.0000,1.3,29.6,11111222
Chevron,ioos:station:wmo:42888:1,2022-08-01T13:43:00Z,0.0000,0.0000,1.3,29.4,11111222
Chevron,ioos:station:wmo:42888:1,2022-08-01T13:53:00Z,0.0000,0.0000,1.2,29.3,11111222
Chevron,ioos:station:wmo:42888:1,2022-08-01T14:03:00Z,0.0000,0.0000,1.2,29.3,11111222
Chevron,ioos:station:wmo:42888:1,2022-08-01T14:13:00Z,0.0000,0.0000,1.4,29.4,11111222
Chevron,ioos:station:wmo:42888:1,2022-08-01T14:23:00Z,0.0000,0.0000,1.3,29.2,11111222
Chevron,ioos:station:wmo:42888:1,2022-08-01T14:33:00Z,0.0000,0.0000,1.3,29.0,11111222
Chevron,ioos:station:wmo:42888:1,2022-08-01T14:43:00Z,0.0000,0.0000,1.4,28.9,11111222
Chevron,ioos:station:wmo:42888:1,2022-08-01T14:53:00Z,0.0000,0.0000,1.4,28.9,11111222
Chevron,ioos:station:wmo:42888:1,2022-08-01T15:03:00Z,0.0000,0.0000,1.3,28.8,11111222
Chevron,ioos:station:wmo:42888:1,2022-08-01T15:13:00Z,0.0000,0.0000,1.3,28.9,11111222
Chevron,ioos:station:wmo:42888:1,2022-08-01T15:23:00Z,0.0000,0.0000,1.4,29.0,11111222
Chevron,ioos:station:wmo:42888:1,2022-08-01T15:33:00Z,0.0000,0.0000,1.3,29.5,11111222
Chevron,ioos:station:wmo:42888:1,2022-08-01T15:43:00Z,0.0000,0.0000,1.3,29.7,11111222
Chevron,ioos:station:wmo:42888:1,2022-08-01T15:53:00Z,0.0000,0.0000,1.3,29.9,11111222
Chevron,ioos:station:wmo:42888:1,2022-08-01T16:03:00Z,0.0000,0.0000,1.2,30.0,11111222
Chevron,ioos:station:wmo:42888:1,2022-08-01T16:13:00Z,0.0000,0.0000,1.2,29.9,11111222
Chevron,ioos:station:wmo:42888:1,2022-08-01T16:23:00Z,0.0000,0.0000,1.2,30.3,11111222
Chevron,ioos:station:wmo:42888:1,2022-08-01T16:33:00Z,0.0000,0.0000,1.1,30.3,11111222
Chevron,ioos:station:wmo:42888:1,2022-08-01T16:43:00Z,0.0000,0.0000,1.0,30.6,11111222
Chevron,ioos:station:wmo:42888:1,2022-08-01T16:53:00Z,0.0000,0.0000,1.1,31.0,11111222
Chevron,ioos:station:wmo:42888:1,2022-08-01T17:03:00Z,0.0000,0.0000,1.2,31.2,11111222
Chevron,ioos:station:wmo:42888:1,2022-08-01T17:13:00Z,0.0000,0.0000,1.4,31.3,11111222
Chevron,ioos:station:wmo:42888:1,2022-08-01T17:23:00Z,0.0000,0.0000,1.4,31.3,11111222
Chevron,ioos:station:wmo:42888:1,2022-08-01T17:33:00Z,0.0000,0.0000,1.4,31.3,11111222
Chevron,ioos:station:wmo:42888:1,2022-08-01T17:43:00Z,0.0000,0.0000,1.3,31.2,11111222
Chevron,ioos:station:wmo:42888:1,2022-08-01T17:53:00Z,0.0000,0.0000,1.6,31.2,11111222
Chevron,ioos:station:wmo:42888:1,2022-08-01T18:03:00Z,0.0000,0.0000,1.3,31.1,11111222
Chevron,ioos:station:wmo:42888:1,2022-08-01T18:13:00Z,0.0000,0.0000,1.1,31.0,11111222
Chevron,ioos:station:wmo:42888:1,2022-08-01T18:23:00Z,0.0000,0.0000,1.2,31.0,11111222
Chevron,ioos:station:wmo:42888:1,2022-08-01T18:33:00Z,0.0000,0.0000,1.1,31.0,11111222
Chevron,ioos:station:wmo:42888:1,2022-08-01T18:43:00Z,0.0000,0.0000,1.2,31.1,11111222
Chevron,ioos:station:wmo:42888:1,2022-08-01T18:53:00Z,0.0000,0.0000,1.4,31.1,11111222
Chevron,ioos:station:wmo:42888:1,2022-08-01T19:03:00Z,0.0000,0.0000,1.1,30.8,11111222
Chevron,ioos:station:wmo:42888:1,2022-08-01T19:13:00Z,0.0000,0.0000,1.2,31.0,11111222
Chevron,ioos:station:wmo:42888:1,2022-08-01T19:23:00Z,0.0000,0.0000,1.3,31.1,11111222
Chevron,ioos:station:wmo:42888:1,2022-08-01T19:33:00Z,0.0000,0.0000,1.1,30.9,11111222
Chevron,ioos:station:wmo:42888:1,2022-08-01T19:43:00Z,0.0000,0.0000,1.2,31.0,11111222
Chevron,ioos:station:wmo:42888:1,2022-08-01T19:53:00Z,0.0000,0.0000,1.1,31.0,11111222
Chevron,ioos:station:wmo:42888:1,2022-08-01T20:03:00Z,0.0000,0.0000,1.1,30.8,11111222
Chevron,ioos:station:wmo:42888:1,2022-08-01T20:13:00Z,0.0000,0.0000,1.0,30.6,11111222
Chevron,ioos:station:wmo:42888:1,2022-08-01T20:23:00Z,0.0000,0.0000,1.2,30.5,11111222
Chevron,ioos:station:wmo:42888:1,2022-08-01T20:33:00Z,0.0000,0.0000,1.1,30.8,11111222
Chevron,ioos:station:wmo:42888:1,2022-08-01T20:43:00Z,0.0000,0.0000,1.2,31.0,11111222
Chevron,ioos:station:wmo:42888:1,2022-08-01T20:53:00Z,0.0000,0.0000,1.0,31.0,11111222
Chevron,ioos:station:wmo:42888:1,2022-08-01T21:03:00Z,0.0000,0.0000,1.1,31.0,11111222
Chevron,ioos:station:wmo:42888:1,2022-08-01T21:13:00Z,0.0000,0.0000,0.9,30.9,11111222
Chevron,ioos:station:wmo:42888:1,2022-08-01T21:23:00Z,0.0000,0.0000,1.3,31.0,11111222
Chevron,ioos:station:wmo:42888:1,2022-08-01T21:33:00Z,0.0000,0.0000,1.4,31.3,11111222
Chevron,ioos:station:wmo:42888:1,2022-08-01T21:43:00Z,0.0000,0.0000,1.3,31.3,11111222
Chevron,ioos:station:wmo:42888:1,2022-08-01T21:53:00Z,0.0000,0.0000,1.4,31.3,11111222
Chevron,ioos:station:wmo:42888:1,2022-08-01T22:03:00Z,0.0000,0.0000,1.5,31.3,11111222
Chevron,ioos:station:wmo:42888:1,2022-08-01T22:13:00Z,0.0000,0.0000,1.3,31.2,11111222
Chevron,ioos:station:wmo:42888:1,2022-08-01T22:23:00Z,0.0000,0.0000,1.2,30.9,11111222
Chevron,ioos:station:wmo:42888:1,2022-08-01T22:33:00Z,0.0000,0.0000,1.2,30.8,11111222
Chevron,ioos:station:wmo:42888:1,2022-08-01T22:43:00Z,0.0000,0.0000,1.0,30.8,11111222
Chevron,ioos:station:wmo:42888:1,2022-08-01T22:53:00Z,0.0000,0.0000,1.2,30.8,11111222
Chevron,ioos:station:wmo:42888:1,2022-08-01T23:03:00Z,0.0000,0.0000,1.2,31.0,11111222
Chevron,ioos:station:wmo:42888:1,2022-08-01T23:13:00Z,0.0000,0.0000,1.1,31.0,11111222
Chevron,ioos:station:wmo:42888:1,2022-08-01T23:23:00Z,0.0000,0.0000,1.1,30.9,11111222
Chevron,ioos:station:wmo:42888:1,2022-08-01T23:33:00Z,0.0000,0.0000,1.1,30.9,11111222
Chevron,ioos:station:wmo:42888:1,2022-08-01T23:43:00Z,0.0000,0.0000,1.1,30.9,11111222
Chevron,ioos:station:wmo:42888:1,2022-08-01T23:53:00Z,0.0000,0.0000,1.1,31.0,11111222
Chevron,ioos:station:wmo:42888:1,2022-08-02T00:03:00Z,0.0000,0.0000,1.1,30.9,11111222
Chevron,ioos:station:wmo:42888:1,2022-08-02T00:13:00Z,0.0000,0.0000,1.2,30.9,11111222
Chevron,ioos:station:wmo:42888:1,2022-08-02T00:23:00Z,0.0000,0.0000,1.1,30.9,11111222
Chevron,ioos:station:wmo:42888:1,2022-08-02T00:33:00Z,0.0000,0.0000,1.2,30.9,11111222
Chevron,ioos:station:wmo:42888:1,2022-08-02T00:43:00Z,0.0000,0.0000,1.1,30.8,11111222
Chevron,ioos:station:wmo:42888:1,2022-08-02T00:53:00Z,0.0000,0.0000,1.1,30.8,11111222
Chevron,ioos:station:wmo:42888:1,2022-08-02T01:03:00Z,0.0000,0.0000,1.1,30.8,11111222
Chevron,ioos:station:wmo:42888:1,2022-08-02T01:13:00Z,0.0000,0.0000,1.1,30.8,11111222
Chevron,ioos:station:wmo:42888:1,2022-08-02T01:23:00Z,0.0000,0.0000,1.2,30.7,11111222
Chevron,ioos:station:wmo:42888:1,2022-08-02T01:33:00Z,0.0000,0.0000,1.0,30.7,11111222
Chevron,ioos:station:wmo:42888:1,2022-08-02T01:43:00Z,0.0000,0.0000,1.1,30.6,11111222
Chevron,ioos:station:wmo:42888:1,2022-08-02T01:53:00Z,0.0000,0.0000,1.1,30.8,11111222
Chevron,ioos:station:wmo:42888:1,2022-08-02T02:03:00Z,0.0000,0.0000,1.1,30.2,11111222
Chevron,ioos:station:wmo:42888:1,2022-08-02T02:13:00Z,0.0000,0.0000,1.1,30.2,11111222
Chevron,ioos:station:wmo:42888:1,2022-08-02T02:23:00Z,0.0000,0.0000,1.0,30.2,11111222
Chevron,ioos:station:wmo:42888:1,2022-08-02T02:33:00Z,0.0000,0.0000,1.1,30.3,11111222
Chevron,ioos:station:wmo:42888:1,2022-08-02T02:43:00Z,0.0000,0.0000,1.0,30.3,11111222
Chevron,ioos:station:wmo:42888:1,2022-08-02T02:53:00Z,0.0000,0.0000,1.1,30.3,11111222
Chevron,ioos:station:wmo:42888:1,2022-08-02T03:03:00Z,0.0000,0.0000,1.2,30.4,11111222
Chevron,ioos:station:wmo:42888:1,2022-08-02T03:13:00Z,0.0000,0.0000,1.2,30.4,11111222
Chevron,ioos:station:wmo:42888:1,2022-08-02T03:23:00Z,0.0000,0.0000,1.1,30.4,11111222
Chevron,ioos:station:wmo:42888:1,2022-08-02T03:33:00Z,0.0000,0.0000,1.1,30.4,11111222
Chevron,ioos:station:wmo:42888:1,2022-08-02T03:43:00Z,0.0000,0.0000,1.0,30.3,11111222
Chevron,ioos:station:wmo:42888:1,2022-08-02T03:53:00Z,0.0000,0.0000,1.1,30.4,11111222
Chevron,ioos:station:wmo:42888:1,2022-08-02T04:03:00Z,0.0000,0.0000,1.1,30.3,11111222
Chevron,ioos:station:wmo:42888:1,2022-08-02T04:13:00Z,0.0000,0.0000,1.2,30.5,11111222
Chevron,ioos:station:wmo:42888:1,2022-08-02T04:23:00Z,0.0000,0.0000,1.1,30.4,11111222
Chevron,ioos:station:wmo:42888:1,2022-08-02T04:33:00Z,0.0000,0.0000,1.0,30.6,11111222
Chevron,ioos:station:wmo:42888:1,2022-08-02T04:43:00Z,0.0000,0.0000,1.1,30.6,11111222
Chevron,ioos:station:wmo:42888:1,2022-08-02T04:53:00Z,0.0000,0.0000,1.1,30.6,11111222
Chevron,ioos:station:wmo:42888:1,2022-08-02T05:03:00Z,0.0000,0.0000,1.1,30.6,11111222
Chevron,ioos:station:wmo:42888:1,2022-08-02T05:13:00Z,0.0000,0.0000,1.1,30.8,11111222
Chevron,ioos:station:wmo:42888:1,2022-08-02T05:23:00Z,0.0000,0.0000,1.0,30.7,11111222
Chevron,ioos:station:wmo:42888:1,2022-08-02T05:33:00Z,0.0000,0.0000,1.1,30.8,11111222
Chevron,ioos:station:wmo:42888:1,2022-08-02T05:43:00Z,0.0000,0.0000,1.2,30.9,11111222
Chevron,ioos:station:wmo:42888:1,2022-08-02T05:53:00Z,0.0000,0.0000,1.1,30.8,11111222
Chevron,ioos:station:wmo:42888:1,2022-08-02T06:03:00Z,0.0000,0.0000,1.1,30.3,11111222
Chevron,ioos:station:wmo:42888:1,2022-08-02T06:13:00Z,0.0000,0.0000,1.1,30.5,11111222
Chevron,ioos:station:wmo:42888:1,2022-08-02T06:23:00Z,0.0000,0.0000,1.3,31.0,11111222
Chevron,ioos:station:wmo:42888:1,2022-08-02T06:33:00Z,0.0000,0.0000,1.2,31.0,11111222
Chevron,ioos:station:wmo:42888:1,2022-08-02T06:43:00Z,0.0000,0.0000,1.1,30.9,11111222
Chevron,ioos:station:wmo:42888:1,2022-08-02T06:53:00Z,0.0000,0.0000,1.1,30.7,11111222
Chevron,ioos:station:wmo:42888:1,2022-08-02T07:03:00Z,0.0000,0.0000,1.1,30.9,11111222
Chevron,ioos:station:wmo:42888:1,2022-08-02T07:13:00Z,0.0000,0.0000,1.3,31.3,11111222
Chevron,ioos:station:wmo:42888:1,2022-08-02T07:23:00Z,0.0000,0.0000,1.4,31.3,11111222
Chevron,ioos:station:wmo:42888:1,2022-08-02T07:33:00Z,0.0000,0.0000,1.4,31.1,11111222
Chevron,ioos:station:wmo:42888:1,2022-08-02T07:43:00Z,0.0000,0.0000,1.2,30.9,11111222
Chevron,ioos:station:wmo:42888:1,2022-08-02T07:53:00Z,0.0000,0.0000,1.5,31.1,11111222
Chevron,ioos:station:wmo:42888:1,2022-08-02T08:03:00Z,0.0000,0.0000,1.2,30.6,11111222
Chevron,ioos:station:wmo:42888:1,2022-08-02T08:13:00Z,0.0000,0.0000,1.3,30.4,11111222
Chevron,ioos:station:wmo:42888:1,2022-08-02T08:23:00Z,0.0000,0.0000,1.0,30.2,11111222
Chevron,ioos:station:wmo:42888:1,2022-08-02T08:33:00Z,0.0000,0.0000,1.1,30.1,11111222
Chevron,ioos:station:wmo:42888:1,2022-08-02T08:43:00Z,0.0000,0.0000,1.2,29.9,11111222
Chevron,ioos:station:wmo:42888:1,2022-08-02T08:53:00Z,0.0000,0.0000,1.4,29.8,11111222
Chevron,ioos:station:wmo:42888:1,2022-08-02T09:03:00Z,0.0000,0.0000,1.1,29.9,11111222
Chevron,ioos:station:wmo:42888:1,2022-08-02T09:13:00Z,0.0000,0.0000,1.1,29.9,11111222
Chevron,ioos:station:wmo:42888:1,2022-08-02T09:23:00Z,0.0000,0.0000,1.2,30.0,11111222
Chevron,ioos:station:wmo:42888:1,2022-08-02T09:33:00Z,0.0000,0.0000,1.1,30.1,11111222
Chevron,ioos:station:wmo:42888:1,2022-08-02T09:43:00Z,0.0000,0.0000,1.1,30.1,11111222
Chevron,ioos:station:wmo:42888:1,2022-08-02T09:53:00Z,0.0000,0.0000,1.2,30.0,11111222
Chevron,ioos:station:wmo:42888:1,2022-08-02T10:03:00Z,0.0000,0.0000,0.9,30.0,11111222
Chevron,ioos:station:wmo:42888:1,2022-08-02T10:13:00Z,0.0000,0.0000,0.9,30.0,11111222
Chevron,ioos:station:wmo:42888:1,2022-08-02T10:23:00Z,0.0000,0.0000,1.0,29.9,11111222
Chevron,ioos:station:wmo:42888:1,2022-08-02T10:33:00Z,0.0000,0.0000,1.2,29.8,11111222
Chevron,ioos:station:wmo:42888:1,2022-08-02T10:43:00Z,0.0000,0.0000,1.2,29.8,11111222
Chevron,ioos:station:wmo:42888:1,2022-08-02T10:53:00Z,0.0000,0.0000,1.1,29.9,11111222
Chevron,ioos:station:wmo:42888:1,2022-08-02T11:03:00Z,0.0000,0.0000,1.2,30.0,11111222
Chevron,ioos:station:wmo:42888:1,2022-08-02T11:13:00Z,0.0000,0.0000,1.0,30.1,11111222
Chevron,ioos:station:wmo:42888:1,2022-08-02T11:23:00Z,0.0000,0.0000,1.0,30.1,11111222
Chevron,ioos:station:wmo:42888:1,2022-08-02T11:33:00Z,0.0000,0.0000,1.2,30.0,11111222
Chevron,ioos:station:wmo:42888:1,2022-08-02T11:43:00Z,0.0000,0.0000,1.3,29.9,11111222
Chevron,ioos:station:wmo:42888:1,2022-08-02T11:53:00Z,0.0000,0.0000,1.3,29.7,11111222
Chevron,ioos:station:wmo:42888:1,2022-08-02T12:03:00Z,0.0000,0.0000,1.3,29.8,11111222
Chevron,ioos:station:wmo:42888:1,2022-08-02T12:13:00Z,0.0000,0.0000,1.3,29.6,11111222
Chevron,ioos:station:wmo:42888:1,2022-08-02T12:23:00Z,0.0000,0.0000,1.2,29.4,11111222
Chevron,ioos:station:wmo:42888:1,2022-08-02T12:33:00Z,0.0000,0.0000,1.2,29.4,11111222
Chevron,ioos:station:wmo:42888:1,2022-08-02T12:43:00Z,0.0000,0.0000,1.2,29.6,11111222
Chevron,ioos:station:wmo:42888:1,2022-08-02T12:53:00Z,0.0000,0.0000,1.0,29.9,11111222
Chevron,ioos:station:wmo:42888:1,2022-08-02T13:03:00Z,0.0000,0.0000,1.0,30.1,11111222
Chevron,ioos:station:wmo:42888:1,2022-08-02T13:13:00Z,0.0000,0.0000,1.1,30.0,11111222
Chevron,ioos:station:wmo:42888:1,2022-08-02T13:23:00Z,0.0000,0.0000,1.2,30.2,11111222
Chevron,ioos:station:wmo:42888:1,2022-08-02T13:33:00Z,0.0000,0.0000,1.2,30.3,11111222
Chevron,ioos:station:wmo:42888:1,2022-08-02T13:43:00Z,0.0000,0.0000,1.0,30.3,11111222
Chevron,ioos:station:wmo:42888:1,2022-08-02T13:53:00Z,0.0000,0.0000,1.1,30.4,11111222
Chevron,ioos:station:wmo:42888:1,2022-08-02T14:03:00Z,0.0000,0.0000,1.1,30.5,11111222
Chevron,ioos:station:wmo:42888:1,2022-08-02T14:13:00Z,0.0000,0.0000,1.1,30.8,11111222
Chevron,ioos:station:wmo:42888:1,2022-08-02T14:23:00Z,0.0000,0.0000,1.1,30.8,11111222
Chevron,ioos:station:wmo:42888:1,2022-08-02T14:33:00Z,0.0000,0.0000,1.1,30.9,11111222
Chevron,ioos:station:wmo:42888:1,2022-08-02T14:43:00Z,0.0000,0.0000,1.1,31.0,11111222
Chevron,ioos:station:wmo:42888:1,2022-08-02T14:53:00Z,0.0000,0.0000,1.1,31.0,11111222
Chevron,ioos:station:wmo:42888:1,2022-08-02T15:03:00Z,0.0000,0.0000,1.1,31.0,11111222
Chevron,ioos:station:wmo:42888:1,2022-08-02T15:13:00Z,0.0000,0.0000,1.1,30.9,11111222
Chevron,ioos:station:wmo:42888:1,2022-08-02T15:23:00Z,0.0000,0.0000,0.9,30.9,11111222
Chevron,ioos:station:wmo:42888:1,2022-08-02T15:33:00Z,0.0000,0.0000,1.0,30.9,11111222
Chevron,ioos:station:wmo:42888:1,2022-08-02T15:43:00Z,0.0000,0.0000,1.2,30.9,11111222
Chevron,ioos:station:wmo:42888:1,2022-08-02T15:53:00Z,0.0000,0.0000,1.0,30.9,11111222
Chevron,ioos:station:wmo:42888:1,2022-08-02T16:03:00Z,0.0000,0.0000,1.1,30.9,11111222
Chevron,ioos:station:wmo:42888:1,2022-08-02T16:13:00Z,0.0000,0.0000,1.2,31.0,11111222
Chevron,ioos:station:wmo:42888:1,2022-08-02T16:23:00Z,0.0000,0.0000,1.0,31.0,11111222
Chevron,ioos:station:wmo:42888:1,2022-08-02T16:33:00Z,0.0000,0.0000,1.1,31.0,11111222
Chevron,ioos:station:wmo:42888:1,2022-08-02T16:43:00Z,0.0000,0.0000,1.1,30.9,11111222
Chevron,ioos:station:wmo:42888:1,2022-08-02T16:53:00Z,0.0000,0.0000,1.0,30.9,11111222
Chevron,ioos:station:wmo:42888:1,2022-08-02T17:03:00Z,0.0000,0.0000,1.0,30.9,11111222
Chevron,ioos:station:wmo:42888:1,2022-08-02T17:13:00Z,0.0000,0.0000,0.9,30.7,11111222
Chevron,ioos:station:wmo:42888:1,2022-08-02T17:23:00Z,0.0000,0.0000,1.0,30.6,11111222
Chevron,ioos:station:wmo:42888:1,2022-08-02T17:33:00Z,0.0000,0.0000,1.0,30.6,11111222
Chevron,ioos:station:wmo:42888:1,2022-08-02T17:43:00Z,0.0000,0.0000,1.0,30.7,11111222
Chevron,ioos:station:wmo:42888:1,2022-08-02T17:53:00Z,0.0000,0.0000,1.0,30.6,11111222
Chevron,ioos:station:wmo:42888:1,2022-08-02T18:03:00Z,0.0000,0.0000,1.0,30.5,11111222
Chevron,ioos:station:wmo:42888:1,2022-08-02T18:13:00Z,0.0000,0.0000,0.9,30.6,11111222
Chevron,ioos:station:wmo:42888:1,2022-08-02T18:23:00Z,0.0000,0.0000,1.1,30.0,11111222
Chevron,ioos:station:wmo:42888:1,2022-08-02T18:33:00Z,0.0000,0.0000,1.3,29.4,11111222
Chevron,ioos:station:wmo:42888:1,2022-08-02T18:43:00Z,0.0000,0.0000,1.4,29.6,11111222
Chevron,ioos:station:wmo:42888:1,2022-08-02T18:53:00Z,0.0000,0.0000,1.1,30.0,11111222
Chevron,ioos:station:wmo:42888:1,2022-08-02T19:03:00Z,0.0000,0.0000,1.0,30.6,11111222
Chevron,ioos:station:wmo:42888:1,2022-08-02T19:13:00Z,0.0000,0.0000,1.1,30.4,11111222
Chevron,ioos:station:wmo:42888:1,2022-08-02T19:23:00Z,0.0000,0.0000,1.3,31.0,11111222
Chevron,ioos:station:wmo:42888:1,2022-08-02T19:33:00Z,0.0000,0.0000,1.0,31.0,11111222
Chevron,ioos:station:wmo:42888:1,2022-08-02T19:43:00Z,0.0000,0.0000,1.0,30.8,11111222
Chevron,ioos:station:wmo:42888:1,2022-08-02T19:53:00Z,0.0000,0.0000,1.2,30.8,11111222
Chevron,ioos:station:wmo:42888:1,2022-08-02T20:03:00Z,0.0000,0.0000,1.1,30.7,11111222
Chevron,ioos:station:wmo:42888:1,2022-08-02T20:13:00Z,0.0000,0.0000,1.1,30.7,11111222
Chevron,ioos:station:wmo:42888:1,2022-08-02T20:23:00Z,0.0000,0.0000,1.2,29.9,11111222
Chevron,ioos:station:wmo:42888:1,2022-08-02T20:33:00Z,0.0000,0.0000,1.1,30.0,11111222
Chevron,ioos:station:wmo:42888:1,2022-08-02T20:43:00Z,0.0000,0.0000,1.1,29.9,11111222
Chevron,ioos:station:wmo:42888:1,2022-08-02T20:53:00Z,0.0000,0.0000,1.0,30.1,11111222
Chevron,ioos:station:wmo:42888:1,2022-08-02T21:03:00Z,0.0000,0.0000,1.1,30.8,11111222
Chevron,ioos:station:wmo:42888:1,2022-08-02T21:13:00Z,0.0000,0.0000,1.0,31.0,11111222
Chevron,ioos:station:wmo:42888:1,2022-08-02T21:23:00Z,0.0000,0.0000,1.1,30.5,11111222
Chevron,ioos:station:wmo:42888:1,2022-08-02T21:33:00Z,0.0000,0.0000,1.1,31.0,11111222
Chevron,ioos:station:wmo:42888:1,2022-08-02T21:43:00Z,0.0000,0.0000,1.2,31.0,11111222
Chevron,ioos:station:wmo:42888:1,2022-08-02T21:53:00Z,0.0000,0.0000,1.2,30.9,11111222